Regional Weather Roundup
Issued by NWS Newport/Morehead, NC

Home | Current Version | Previous Version | Text Only | Print | Product List | Glossary On
Versions: 1 2 3 4 5 6 7 8 9 10 11 12 13 14 15 16 17 18 19 20 21 22 23 24 25 26 27 28 29 30 31 32 33 34 35 36 37 38 39 40 41 42 43 44 45 46 47 48 49 50
000
ASUS42 KMHX 080225
RWRMHX
WEATHER ROUNDUP FOR EASTERN NORTH CAROLINA
NATIONAL WEATHER SERVICE NEWPORT/MOREHEAD CITY NC
900 PM EST SUN FEB 07 2016

NOTE: "FAIR" INDICATES FEW OR NO CLOUDS BELOW 12,000 FEET
WITH NO SIGNIFICANT WEATHER AND/OR OBSTRUCTIONS TO VISIBILITY

NCZ015>017-031-032-045>047-102-103-080300-
NORTH COAST

CITY           SKY/WX    TMP DP  RH WIND       PRES   REMARKS
EDENTON        LGT RAIN  40  35  83 N17G25    29.72F
ELIZABETH CITY LGT RAIN  41  37  86 N24G36    29.69F
KITTY HAWK     LGT RAIN  44  42  92 N20G35    29.57S
MANTEO         LGT RAIN  43  42  97 N32G41    29.58R

$$

NCZ045>047-081-094-103-104-080300-
CENTRAL COAST

CITY           SKY/WX    TMP DP  RH WIND       PRES   REMARKS
FRISCO         RAIN      45  43  93 N23G41    29.44F FOG
SWANQUARTER      N/A     39 N/A N/A N14G40    29.56F

$$

NCZ095-097-098-100-101-080300-
SOUTHERN COAST

CITY           SKY/WX    TMP DP  RH WIND       PRES   REMARKS
BEAUFORT       RAIN      38  34  85 N35G46    29.57R
CEDAR ISLAND     N/A     41 N/A N/A NW39G62   29.59S
JACKSONVILLE   LGT RAIN  38  32  79 N25G33    29.68F
PINEY ISLAND   NOT AVBL
WILMINGTON     LGT RAIN  38  32  79 NW21      29.74R


$$

NCZ011>013-027>030-043-044-078>080-089-090>093-098-080300-
COASTAL PLAIN

CITY           SKY/WX    TMP DP  RH WIND       PRES   REMARKS
AHOSKIE        LGT RAIN  37  30  78 N8G17     29.78F
CLINTON        CLOUDY    41  28  58 NW9       29.81S
ELIZABETHTOWN  CLOUDY    40  29  64 NW12      29.80F
GOLDSBORO      CLOUDY    41  27  56 NW14      29.77S
GREENVILLE     DRIZZLE   37  32  81 N14G22    29.77F
HAVELOCK       LGT RAIN  38  33  82 N33G39    29.64S
KENANSVILLE      N/A     39  28  64 NW7G16    29.78S
KINSTON        CLOUDY    39  32  75 N12G17    29.76F
NEW BERN       RAIN      37  32  82 N18G30    29.69F
RICHLANDS      CLOUDY    37  28  70 NW7G16    29.73S
ROCKY MOUNT    MOCLDY    41  24  51 N13       29.81S
WASHINGTON     LGT RAIN  36  32  85 N15G24    29.72F
WHITEVILLE     MOCLDY    41  29  61 W6        29.81S

$$

AMZ130-135-150-152-154-156-158-170-250-252-270-ANZ085-086-088-633-658-670-080300-
MARINE OBSERVATIONS

STATION/POSITION TIME  TEMP    WIND        PRES    WAVE   SWELL
                       AIR SEA DIR/SP/G            HT/PER HT/PER
                 (UTC) (F)     (DEG/KT/KT) (MB)    (FT/S) (FT/S)
CHESAPEAKE LIGHT 0200   44      20/ 33/ 37 1005.5
64 E VA BEACH    0150   51 54   20/ 39/ 47  999.2   17/10  10/10
DUCK             0200   45 53              1000.8
2 E DUCK         0211      45                N/A    15/ 9   5/11
OREGON INLET     0200   45 45               999.5
13E OREGON INLT  0200      46                N/A    20/10  10/11
HATTERAS CG      0200   45 47               996.3
DIAMOND BUOY     0150   52 71  360/ 45/ 54  991.8   19/13   8/13
CAPE LOOKOUT     NOT AVBL
BEAUFORT LAB     0200   39 46              1000.2
30 SE NEW RVR IN 0208   41 61               998.1
30 SE NEW RVR IN 0125      61                N/A    18/ 8  10/13
27 SE WRIGHTSVLE 0208   43 61  360/ 37/ 49  999.3
5 SE WRIGHTSVLE  0108   41 52  350/ 31/ 43 1004.4
225 S CAPE HAT   0150   56 69  280/ 47/ 60   N/A    25/ 9
41 SE CHARLESTON 0150   52 66  310/ 31/ 39 1009.8   11/ 6   3/16

$$




USA.gov is the U.S. government's official web portal to all federal, state and local government web resources and services.